Location: Erlenbrunn
(49.1717°N, 7.6142°E)
Time: 12:10:08
(UTC+00:00)

Cosmos 540 Rocket - Pass Details

Date: 25 November 2020
Orbit: 740 x 754 km, 74.1° (Epoch: 25 January)

Event Time Altitude Azimuth Distance (km) Brightness Sun altitude
Rises 16:37:27 0° 220° (SW) 3,177 7.9 -9.6°
Reaches altitude 10° 16:39:53 10° 226° (SW) 2,256 7.1 -9.9°
Maximum altitude 16:44:48 47° 300° (WNW) 988 4.4 -10.7°
Drops below altitude 10° 16:49:45 10° 14° (NNE) 2,264 5.6 -11.4°
Enters shadow 16:51:49 - 20° (NNE) 3,045 6.2 -11.8°
